| time (UTC) | temp F | wind direction | speed MPH | gust MPH | rain 1hr in | rain 24hr in | rain mn in | humidity % | barometer mb |
| 20260509213522 | 87 | 212 | 1.0 | 11.0 | 0.00 | 0.02 | 0.01 | 57 | 1008.6 |
| 20260509213038 | 86 | 90 | 2.0 | 11.0 | 0.00 | 0.02 | 0.01 | 58 | 1008.7 |
| 20260509212522 | 87 | 101 | 4.0 | 11.0 | 0.00 | 0.02 | 0.01 | 57 | 1008.7 |
| 20260509212025 | 87 | 178 | 3.0 | 9.0 | 0.00 | 0.02 | 0.01 | 57 | 1008.9 |
| 20260509211544 | 87 | 108 | 2.0 | 10.0 | 0.00 | 0.02 | 0.01 | 58 | 1009.0 |
| 20260509211023 | 87 | 194 | 4.0 | 10.0 | 0.00 | 0.02 | 0.01 | 56 | 1008.9 |
| 20260509210521 | 87 | 174 | 3.0 | 10.0 | 0.00 | 0.02 | 0.01 | 57 | 1008.9 |
| 20260509210040 | 88 | 100 | 3.0 | 10.0 | 0.00 | 0.02 | 0.01 | 55 | 1009.1 |
| 20260509205521 | 87 | 200 | 2.0 | 10.0 | 0.00 | 0.02 | 0.01 | 57 | 1009.1 |
| 20260509205023 | 87 | 174 | 3.0 | 13.0 | 0.00 | 0.02 | 0.01 | 55 | 1009.2 |
| 20260509204541 | 87 | 146 | 3.0 | 13.0 | 0.00 | 0.02 | 0.01 | 57 | 1009.3 |
| 20260509204023 | 88 | 192 | 5.0 | 11.0 | 0.00 | 0.02 | 0.01 | 57 | 1009.2 |
| 20260509203519 | 88 | 138 | 2.0 | 9.0 | 0.00 | 0.02 | 0.01 | 56 | 1009.3 |
| 20260509203039 | 88 | 146 | 2.0 | 9.0 | 0.00 | 0.02 | 0.01 | 57 | 1009.3 |
| 20260509202522 | 87 | 98 | 2.0 | 8.0 | 0.00 | 0.02 | 0.01 | 57 | 1009.3 |
| 20260509202022 | 86 | 24 | 2.0 | 9.0 | 0.00 | 0.02 | 0.01 | 56 | 1009.4 |
| 20260509201537 | 86 | 82 | 2.0 | 9.0 | 0.00 | 0.02 | 0.01 | 56 | 1009.4 |
| 20260509201021 | 85 | 84 | 2.0 | 10.0 | 0.00 | 0.02 | 0.01 | 57 | 1009.5 |
| 20260509200521 | 87 | 21 | 3.0 | 10.0 | 0.00 | 0.02 | 0.01 | 55 | 1009.5 |
| 20260509200043 | 87 | 76 | 1.0 | 9.0 | 0.00 | 0.02 | 0.01 | 55 | 1009.5 |
| 20260509195527 | 87 | 30 | 4.0 | 9.0 | 0.00 | 0.02 | 0.01 | 56 | 1009.6 |
| 20260509195021 | 87 | 45 | 2.0 | 7.0 | 0.00 | 0.02 | 0.01 | 55 | 1009.6 |
| 20260509194538 | 88 | 205 | 1.0 | 9.0 | 0.00 | 0.02 | 0.01 | 55 | 1009.6 |
| 20260509194021 | 87 | 145 | 1.0 | 9.0 | 0.00 | 0.02 | 0.01 | 56 | 1009.7 |
| 20260509193522 | 86 | 151 | 2.0 | 9.0 | 0.00 | 0.02 | 0.01 | 54 | 1009.8 |
| 20260509193037 | 86 | 61 | 2.0 | 9.0 | 0.00 | 0.02 | 0.01 | 54 | 1009.9 |
| 20260509192522 | 86 | 146 | 2.0 | 8.0 | 0.00 | 0.02 | 0.01 | 54 | 1009.9 |
| 20260509192025 | 86 | 34 | 1.0 | 8.0 | 0.00 | 0.02 | 0.01 | 56 | 1009.9 |
| 20260509191541 | 85 | 5 | 3.0 | 10.0 | 0.00 | 0.02 | 0.01 | 55 | 1009.9 |
| 20260509191020 | 86 | 111 | 4.0 | 10.0 | 0.00 | 0.02 | 0.01 | 54 | 1010.0 |
| 20260509190520 | 86 | 52 | 2.0 | 7.0 | 0.00 | 0.02 | 0.01 | 58 | 1009.9 |
| 20260509190042 | 84 | 107 | 1.0 | 7.0 | 0.00 | 0.02 | 0.01 | 60 | 1009.9 |
| 20260509185522 | 84 | 98 | 1.0 | 6.0 | 0.00 | 0.02 | 0.01 | 59 | 1010.0 |
| 20260509185021 | 84 | 275 | 2.0 | 9.0 | 0.00 | 0.02 | 0.01 | 58 | 1010.1 |
| 20260509184554 | 84 | 333 | 3.0 | 9.0 | 0.00 | 0.02 | 0.01 | 59 | 1010.1 |
| 20260509184021 | 85 | 292 | 1.0 | 6.0 | 0.00 | 0.02 | 0.01 | 61 | 1010.1 |
| 20260509183521 | 83 | 116 | 1.0 | 5.0 | 0.00 | 0.02 | 0.01 | 64 | 1010.2 |
| 20260509183039 | 83 | 71 | 2.0 | 6.0 | 0.00 | 0.02 | 0.01 | 64 | 1010.3 |
| 20260509182521 | 83 | 0 | 1.0 | 6.0 | 0.00 | 0.02 | 0.01 | 62 | 1010.2 |
| 20260509182024 | 84 | 341 | 2.0 | 7.0 | 0.00 | 0.02 | 0.01 | 64 | 1010.3 |
| 20260509181545 | 83 | 0 | 2.0 | 7.0 | 0.00 | 0.02 | 0.01 | 63 | 1010.4 |
| 20260509181021 | 82 | 0 | 1.0 | 7.0 | 0.00 | 0.02 | 0.01 | 65 | 1010.4 |
| 20260509180525 | 82 | 92 | 2.0 | 7.0 | 0.00 | 0.02 | 0.01 | 64 | 1010.4 |
| 20260509180037 | 83 | 34 | 2.0 | 7.0 | 0.00 | 0.02 | 0.01 | 64 | 1010.6 |
| 20260509175521 | 82 | 32 | 3.0 | 10.0 | 0.00 | 0.02 | 0.01 | 67 | 1010.7 |
| 20260509175021 | 81 | 0 | 3.0 | 10.0 | 0.00 | 0.02 | 0.01 | 68 | 1010.7 |
| 20260509174536 | 81 | 336 | 2.0 | 6.0 | 0.00 | 0.02 | 0.01 | 67 | 1010.8 |
| 20260509174021 | 81 | 338 | 2.0 | 11.0 | 0.00 | 0.02 | 0.01 | 68 | 1010.8 |
| 20260509173524 | 81 | 31 | 3.0 | 11.0 | 0.00 | 0.02 | 0.01 | 68 | 1010.8 |
| 20260509173038 | 81 | 350 | 2.0 | 6.0 | 0.00 | 0.02 | 0.01 | 67 | 1010.9 |
| 20260509172521 | 81 | 269 | 2.0 | 7.0 | 0.00 | 0.02 | 0.01 | 67 | 1011.0 |
| 20260509172022 | 80 | 38 | 2.0 | 8.0 | 0.00 | 0.02 | 0.01 | 70 | 1011.0 |
| 20260509171539 | 80 | 341 | 2.0 | 8.0 | 0.00 | 0.02 | 0.01 | 69 | 1011.1 |
| 20260509171021 | 79 | 108 | 2.0 | 8.0 | 0.00 | 0.02 | 0.01 | 70 | 1011.1 |
| 20260509170521 | 80 | 327 | 2.0 | 8.0 | 0.00 | 0.02 | 0.01 | 70 | 1011.0 |
| 20260509170038 | 79 | 40 | 2.0 | 8.0 | 0.00 | 0.02 | 0.01 | 71 | 1011.0 |
| 20260509165521 | 79 | 350 | 4.0 | 11.0 | 0.00 | 0.02 | 0.01 | 71 | 1011.0 |
| 20260509165021 | 78 | 44 | 5.0 | 11.0 | 0.00 | 0.02 | 0.01 | 71 | 1011.0 |
| 20260509164537 | 78 | 360 | 3.0 | 8.0 | 0.00 | 0.02 | 0.01 | 72 | 1011.0 |
| 20260509164024 | 78 | 90 | 3.0 | 10.0 | 0.00 | 0.02 | 0.01 | 73 | 1011.0 |
| 20260509163521 | 78 | 319 | 3.0 | 10.0 | 0.00 | 0.02 | 0.01 | 73 | 1011.1 |
| 20260509163044 | 78 | 342 | 4.0 | 9.0 | 0.00 | 0.02 | 0.01 | 73 | 1011.1 |
| 20260509162521 | 78 | 36 | 5.0 | 10.0 | 0.00 | 0.02 | 0.01 | 73 | 1011.0 |
| 20260509162021 | 77 | 288 | 4.0 | 10.0 | 0.00 | 0.02 | 0.01 | 74 | 1011.0 |
| 20260509161535 | 77 | 325 | 5.0 | 10.0 | 0.00 | 0.02 | 0.01 | 74 | 1010.9 |
| 20260509161020 | 77 | 21 | 4.0 | 10.0 | 0.00 | 0.02 | 0.01 | 73 | 1010.9 |
| 20260509160521 | 76 | 349 | 3.0 | 8.0 | 0.00 | 0.02 | 0.01 | 76 | 1011.0 |
| 20260509160039 | 76 | 54 | 3.0 | 8.0 | 0.00 | 0.02 | 0.01 | 76 | 1011.0 |
| 20260509155521 | 75 | 45 | 2.0 | 8.0 | 0.00 | 0.02 | 0.01 | 75 | 1011.1 |
| 20260509155025 | 75 | 10 | 2.0 | 10.0 | 0.00 | 0.02 | 0.01 | 77 | 1011.0 |
| 20260509154544 | 75 | 24 | 2.0 | 10.0 | 0.00 | 0.02 | 0.01 | 77 | 1011.0 |
| 20260509154025 | 75 | 286 | 2.0 | 8.0 | 0.00 | 0.02 | 0.01 | 78 | 1011.0 |
| 20260509153524 | 74 | 32 | 2.0 | 5.0 | 0.00 | 0.02 | 0.01 | 79 | 1011.2 |
| 20260509153040 | 74 | 321 | 2.0 | 8.0 | 0.00 | 0.02 | 0.01 | 80 | 1011.0 |
| 20260509152521 | 74 | 75 | 2.0 | 8.0 | 0.00 | 0.02 | 0.01 | 80 | 1011.0 |
| 20260509152022 | 73 | 51 | 2.0 | 7.0 | 0.00 | 0.02 | 0.01 | 81 | 1011.0 |
| 20260509151537 | 73 | 289 | 2.0 | 7.0 | 0.00 | 0.02 | 0.01 | 81 | 1011.1 |
| 20260509151021 | 73 | 336 | 3.0 | 7.0 | 0.00 | 0.02 | 0.01 | 81 | 1011.1 |
| 20260509150519 | 73 | 338 | 3.0 | 8.0 | 0.00 | 0.02 | 0.01 | 82 | 1011.0 |
| 20260509150037 | 72 | 315 | 2.0 | 8.0 | 0.01 | 0.02 | 0.01 | 83 | 1011.1 |
| 20260509145521 | 72 | 284 | 1.0 | 8.0 | 0.01 | 0.02 | 0.01 | 83 | 1011.1 |
| 20260509145021 | 72 | 326 | 3.0 | 10.0 | 0.01 | 0.02 | 0.01 | 83 | 1011.2 |
| 20260509144542 | 71 | 301 | 3.0 | 10.0 | 0.01 | 0.02 | 0.01 | 84 | 1011.1 |
| 20260509144022 | 71 | 322 | 3.0 | 9.0 | 0.01 | 0.02 | 0.01 | 84 | 1011.2 |
| 20260509143522 | 71 | 360 | 4.0 | 9.0 | 0.01 | 0.02 | 0.01 | 84 | 1011.0 |
| 20260509143047 | 72 | 277 | 4.0 | 9.0 | 0.01 | 0.02 | 0.01 | 84 | 1011.1 |
| 20260509142518 | 71 | 323 | 3.0 | 10.0 | 0.01 | 0.02 | 0.01 | 84 | 1010.9 |
| 20260509142020 | 72 | 306 | 4.0 | 10.0 | 0.01 | 0.02 | 0.01 | 85 | 1010.8 |
| 20260509141543 | 71 | 320 | 4.0 | 9.0 | 0.01 | 0.02 | 0.01 | 85 | 1010.8 |
| 20260509141022 | 71 | 284 | 3.0 | 8.0 | 0.01 | 0.02 | 0.01 | 85 | 1010.9 |
| 20260509140519 | 71 | 275 | 3.0 | 10.0 | 0.01 | 0.02 | 0.01 | 85 | 1010.8 |
| 20260509140048 | 71 | 340 | 3.0 | 10.0 | 0.00 | 0.01 | 0.00 | 86 | 1010.8 |
| 20260509135520 | 71 | 300 | 2.0 | 8.0 | 0.00 | 0.03 | 0.00 | 87 | 1010.7 |
| 20260509135022 | 71 | 298 | 3.0 | 7.0 | 0.00 | 0.03 | 0.00 | 87 | 1010.7 |
| 20260509134537 | 71 | 320 | 1.0 | 5.0 | 0.00 | 0.03 | 0.00 | 88 | 1010.7 |
| 20260509134019 | 71 | 305 | 2.0 | 7.0 | 0.00 | 0.03 | 0.00 | 88 | 1010.7 |
| 20260509133519 | 71 | 303 | 3.0 | 7.0 | 0.00 | 0.03 | 0.00 | 88 | 1010.5 |
| 20260509133038 | 71 | 325 | 2.0 | 7.0 | 0.00 | 0.03 | 0.00 | 88 | 1010.4 |
| 20260509132520 | 70 | 13 | 2.0 | 7.0 | 0.00 | 0.03 | 0.00 | 89 | 1010.4 |
| 20260509132025 | 70 | 330 | 1.0 | 4.0 | 0.00 | 0.03 | 0.00 | 89 | 1010.5 |
| 20260509131540 | 70 | 322 | 1.0 | 4.0 | 0.00 | 0.03 | 0.00 | 89 | 1010.5 |
| 20260509131023 | 70 | 313 | 1.0 | 4.0 | 0.00 | 0.03 | 0.00 | 89 | 1010.4 |
| 20260509130519 | 70 | 351 | 0.0 | 2.0 | 0.00 | 0.03 | 0.00 | 90 | 1010.4 |
| 20260509130042 | 70 | 194 | 0.0 | 2.0 | 0.00 | 0.03 | 0.00 | 90 | 1010.5 |
| 20260509125519 | 70 | 157 | 0.0 | 1.0 | 0.00 | 0.05 | 0.00 | 90 | 1010.3 |
| 20260509125020 | 70 | 0 | 0.0 | 1.0 | 0.00 | 0.05 | 0.00 | 91 | 1010.4 |
| 20260509124541 | 69 | 157 | 0.0 | 1.0 | 0.00 | 0.05 | 0.00 | 91 | 1010.4 |
| 20260509124021 | 69 | 0 | 0.0 | 1.0 | 0.00 | 0.05 | 0.00 | 91 | 1010.3 |
| 20260509123522 | 69 | 0 | 0.0 | 1.0 | 0.00 | 0.05 | 0.00 | 91 | 1010.3 |
| 20260509123048 | 69 | 0 | 0.0 | 1.0 | 0.00 | 0.05 | 0.00 | 91 | 1010.3 |
| 20260509122521 | 69 | 0 | 0.0 | 1.0 | 0.00 | 0.05 | 0.00 | 91 | 1010.3 |
| 20260509122020 | 69 | 0 | 0.0 | 1.0 | 0.00 | 0.05 | 0.00 | 91 | 1010.4 |
| 20260509121538 | 69 | 0 | 0.0 | 2.0 | 0.00 | 0.05 | 0.00 | 91 | 1010.3 |
| 20260509121022 | 68 | 0 | 0.0 | 2.0 | 0.00 | 0.05 | 0.00 | 91 | 1010.2 |
| 20260509120522 | 68 | 0 | 0.0 | 3.0 | 0.00 | 0.05 | 0.00 | 91 | 1010.2 |
| 20260509120033 | 68 | 0 | 0.0 | 3.0 | 0.00 | 0.05 | 0.00 | 91 | 1010.3 |
| 20260509115521 | 68 | 0 | 0.0 | 2.0 | 0.00 | 0.24 | 0.00 | 90 | 1010.1 |
| 20260509115026 | 68 | 0 | 0.0 | 3.0 | 0.00 | 0.24 | 0.00 | 90 | 1010.1 |
| 20260509114541 | 69 | 147 | 1.0 | 3.0 | 0.00 | 0.24 | 0.00 | 90 | 1010.0 |
| 20260509114021 | 69 | 0 | 0.0 | 4.0 | 0.00 | 0.24 | 0.00 | 90 | 1010.0 |
| 20260509113521 | 69 | 0 | 0.0 | 4.0 | 0.00 | 0.24 | 0.00 | 90 | 1009.8 |
| 20260509113045 | 69 | 160 | 0.0 | 5.0 | 0.00 | 0.24 | 0.00 | 89 | 1009.6 |
| 20260509112518 | 69 | 157 | 1.0 | 5.0 | 0.00 | 0.24 | 0.00 | 89 | 1009.6 |
| 20260509112021 | 69 | 152 | 1.0 | 4.0 | 0.00 | 0.24 | 0.00 | 89 | 1009.5 |
| 20260509111546 | 69 | 163 | 0.0 | 2.0 | 0.00 | 0.24 | 0.00 | 89 | 1009.4 |
| 20260509111019 | 69 | 0 | 0.0 | 5.0 | 0.00 | 0.24 | 0.00 | 89 | 1009.3 |
| 20260509110521 | 69 | 0 | 0.0 | 5.0 | 0.00 | 0.24 | 0.00 | 89 | 1009.3 |
| 20260509110038 | 69 | 91 | 1.0 | 2.0 | 0.00 | 0.24 | 0.00 | 89 | 1009.2 |
| 20260509105519 | 69 | 0 | 0.0 | 3.0 | 0.00 | 0.33 | 0.00 | 89 | 1009.1 |
| 20260509105019 | 69 | 82 | 0.0 | 3.0 | 0.00 | 0.33 | 0.00 | 89 | 1009.1 |
| 20260509104536 | 69 | 0 | 0.0 | 1.0 | 0.00 | 0.33 | 0.00 | 89 | 1009.1 |
| 20260509104021 | 69 | 0 | 0.0 | 3.0 | 0.00 | 0.33 | 0.00 | 89 | 1009.1 |
| 20260509103521 | 69 | 0 | 0.0 | 3.0 | 0.00 | 0.33 | 0.00 | 89 | 1008.9 |
| 20260509103045 | 69 | 0 | 0.0 | 3.0 | 0.00 | 0.33 | 0.00 | 89 | 1008.9 |
| 20260509102521 | 69 | 0 | 0.0 | 5.0 | 0.00 | 0.33 | 0.00 | 89 | 1008.9 |
| 20260509102019 | 69 | 155 | 1.0 | 5.0 | 0.00 | 0.33 | 0.00 | 89 | 1008.9 |
| 20260509101539 | 70 | 181 | 2.0 | 5.0 | 0.00 | 0.33 | 0.00 | 89 | 1008.9 |
| 20260509101022 | 70 | 153 | 2.0 | 6.0 | 0.00 | 0.33 | 0.00 | 88 | 1009.0 |
| 20260509100520 | 70 | 155 | 1.0 | 6.0 | 0.00 | 0.33 | 0.00 | 88 | 1008.9 |
| 20260509100053 | 70 | 134 | 1.0 | 6.0 | 0.00 | 0.33 | 0.00 | 88 | 1008.9 |
| 20260509095522 | 70 | 107 | 2.0 | 6.0 | 0.00 | 0.33 | 0.00 | 88 | 1008.9 |
| 20260509095021 | 70 | 47 | 1.0 | 3.0 | 0.00 | 0.33 | 0.00 | 88 | 1009.0 |
| 20260509094544 | 70 | 47 | 0.0 | 2.0 | 0.00 | 0.33 | 0.00 | 88 | 1009.0 |
| 20260509094018 | 70 | 83 | 0.0 | 3.0 | 0.00 | 0.33 | 0.00 | 88 | 1008.9 |
| 20260509093521 | 70 | 38 | 1.0 | 4.0 | 0.00 | 0.33 | 0.00 | 88 | 1008.9 |
| 20260509093039 | 70 | 26 | 1.0 | 4.0 | 0.00 | 0.33 | 0.00 | 88 | 1008.9 |
| 20260509092519 | 70 | 334 | 1.0 | 3.0 | 0.00 | 0.33 | 0.00 | 88 | 1008.9 |
| 20260509092018 | 70 | 335 | 0.0 | 2.0 | 0.00 | 0.33 | 0.00 | 88 | 1008.9 |
| 20260509091538 | 69 | 338 | 0.0 | 4.0 | 0.00 | 0.33 | 0.00 | 88 | 1008.7 |
| 20260509091019 | 69 | 43 | 1.0 | 6.0 | 0.00 | 0.33 | 0.00 | 88 | 1008.7 |
| 20260509090519 | 69 | 86 | 2.0 | 7.0 | 0.00 | 0.33 | 0.00 | 88 | 1008.0 |
| 20260509090036 | 69 | 153 | 2.0 | 9.0 | 0.00 | 0.33 | 0.00 | 88 | 1007.5 |
| 20260509085518 | 69 | 165 | 2.0 | 9.0 | 0.00 | 0.47 | 0.00 | 88 | 1007.5 |
| 20260509085021 | 69 | 94 | 2.0 | 7.0 | 0.00 | 0.47 | 0.00 | 88 | 1007.5 |
| 20260509084538 | 69 | 137 | 2.0 | 11.0 | 0.00 | 0.47 | 0.00 | 88 | 1007.8 |
| 20260509084021 | 69 | 186 | 2.0 | 11.0 | 0.00 | 0.47 | 0.00 | 87 | 1007.9 |
| 20260509083520 | 70 | 154 | 2.0 | 9.0 | 0.00 | 0.47 | 0.00 | 87 | 1007.8 |
| 20260509083043 | 70 | 178 | 2.0 | 9.0 | 0.00 | 0.47 | 0.00 | 87 | 1007.8 |
| 20260509082522 | 70 | 184 | 1.0 | 9.0 | 0.00 | 0.47 | 0.00 | 87 | 1008.1 |
| 20260509082020 | 70 | 177 | 2.0 | 9.0 | 0.00 | 0.47 | 0.00 | 88 | 1008.4 |
| 20260509081539 | 70 | 167 | 2.0 | 9.0 | 0.00 | 0.47 | 0.00 | 87 | 1008.5 |
| 20260509081020 | 70 | 153 | 1.0 | 8.0 | 0.00 | 0.47 | 0.00 | 87 | 1008.6 |
| 20260509080522 | 70 | 161 | 1.0 | 8.0 | 0.00 | 0.47 | 0.00 | 87 | 1008.7 |
| 20260509080046 | 70 | 200 | 1.0 | 5.0 | 0.00 | 0.47 | 0.00 | 87 | 1009.2 |
| 20260509075520 | 70 | 154 | 1.0 | 5.0 | 0.00 | 0.69 | 0.00 | 87 | 1009.2 |
| 20260509075019 | 70 | 159 | 1.0 | 4.0 | 0.00 | 0.69 | 0.00 | 87 | 1009.5 |
| 20260509074543 | 70 | 157 | 1.0 | 4.0 | 0.00 | 0.69 | 0.00 | 87 | 1009.7 |
| 20260509074023 | 70 | 136 | 1.0 | 4.0 | 0.00 | 0.69 | 0.00 | 87 | 1009.9 |
| 20260509073520 | 70 | 0 | 1.0 | 5.0 | 0.00 | 0.69 | 0.00 | 88 | 1010.0 |
| 20260509073046 | 70 | 150 | 1.0 | 5.0 | 0.00 | 0.69 | 0.00 | 87 | 1010.2 |
| 20260509072521 | 69 | 138 | 1.0 | 5.0 | 0.00 | 0.69 | 0.00 | 87 | 1010.3 |
| 20260509072020 | 69 | 195 | 0.0 | 2.0 | 0.00 | 0.69 | 0.00 | 87 | 1010.4 |
| 20260509071538 | 69 | 0 | 0.0 | 2.0 | 0.00 | 0.69 | 0.00 | 87 | 1010.4 |
| 20260509071021 | 69 | 0 | 0.0 | 1.0 | 0.00 | 0.69 | 0.00 | 87 | 1010.5 |
| 20260509070522 | 69 | 271 | 0.0 | 1.0 | 0.00 | 0.69 | 0.00 | 87 | 1010.5 |
| 20260509070040 | 69 | 0 | 0.0 | 1.0 | 0.00 | 0.69 | 0.00 | 87 | 1010.6 |
| 20260509065523 | 69 | 0 | 0.0 | 2.0 | 0.00 | 0.69 | 0.00 | 87 | 1010.7 |
| 20260509065020 | 69 | 0 | 0.0 | 2.0 | 0.00 | 0.69 | 0.00 | 87 | 1010.6 |
| 20260509064538 | 69 | 226 | 0.0 | 2.0 | 0.00 | 0.69 | 0.00 | 86 | 1010.6 |
| 20260509064021 | 69 | 0 | 0.0 | 3.0 | 0.00 | 0.69 | 0.00 | 86 | 1010.4 |
| 20260509063520 | 69 | 226 | 0.0 | 3.0 | 0.00 | 0.69 | 0.00 | 86 | 1010.2 |
| 20260509063040 | 69 | 0 | 0.0 | 7.0 | 0.00 | 0.69 | 0.00 | 86 | 1010.0 |
| 20260509062518 | 69 | 224 | 1.0 | 7.0 | 0.00 | 0.69 | 0.00 | 86 | 1010.0 |
| 20260509062018 | 69 | 181 | 1.0 | 4.0 | 0.00 | 0.69 | 0.00 | 86 | 1010.0 |
| 20260509061550 | 69 | 190 | 1.0 | 4.0 | 0.00 | 0.69 | 0.00 | 86 | 1010.0 |
| 20260509061017 | 69 | 195 | 1.0 | 3.0 | 0.00 | 0.69 | 0.00 | 86 | 1010.1 |
| 20260509060520 | 69 | 190 | 0.0 | 3.0 | 0.00 | 0.69 | 0.00 | 86 | 1010.1 |
| 20260509060036 | 69 | 150 | 1.0 | 2.0 | 0.00 | 0.69 | 0.00 | 86 | 1010.1 |
| 20260509055525 | 69 | 178 | 0.0 | 2.0 | 0.00 | 0.69 | 0.00 | 86 | 1010.2 |
| 20260509055020 | 69 | 173 | 1.0 | 2.0 | 0.00 | 0.69 | 0.00 | 86 | 1010.2 |
| 20260509054550 | 69 | 0 | 0.0 | 1.0 | 0.00 | 0.69 | 0.00 | 86 | 1010.7 |
| 20260509054020 | 69 | 0 | 0.0 | 1.0 | 0.00 | 0.69 | 0.00 | 86 | 1010.7 |
| 20260509053521 | 69 | 0 | 0.0 | 1.0 | 0.00 | 0.69 | 0.00 | 86 | 1010.7 |
| 20260509053053 | 69 | 0 | 0.0 | 1.0 | 0.00 | 0.69 | 0.00 | 85 | 1011.0 |
| 20260509052524 | 69 | 0 | 0.0 | 1.0 | 0.00 | 0.69 | 0.00 | 85 | 1010.9 |
| 20260509052020 | 70 | 0 | 0.0 | 3.0 | 0.00 | 0.69 | 0.00 | 85 | 1010.9 |
| 20260509051537 | 69 | 200 | 0.0 | 5.0 | 0.00 | 0.69 | 0.00 | 85 | 1011.0 |
| 20260509051023 | 69 | 292 | 1.0 | 6.0 | 0.00 | 0.69 | 0.00 | 85 | 1011.5 |
| 20260509050520 | 69 | 263 | 3.0 | 6.0 | 0.00 | 0.69 | 0.00 | 86 | 1011.8 |
| 20260509050038 | 69 | 335 | 2.0 | 3.0 | 0.00 | 0.69 | 0.00 | 85 | 1011.5 |
| 20260509045524 | 69 | 322 | 1.0 | 3.0 | 0.00 | 0.69 | 0.69 | 84 | 1011.0 |
| 20260509045019 | 69 | 0 | 0.0 | 3.0 | 0.00 | 0.69 | 0.69 | 84 | 1010.3 |
| 20260509044544 | 69 | 0 | 0.0 | 3.0 | 0.01 | 0.69 | 0.69 | 84 | 1010.2 |
| 20260509044017 | 69 | 227 | 1.0 | 2.0 | 0.01 | 0.69 | 0.69 | 84 | 1009.9 |
| 20260509043517 | 69 | 0 | 0.0 | 2.0 | 0.01 | 0.69 | 0.69 | 84 | 1010.1 |
| 20260509043034 | 70 | 78 | 0.0 | 3.0 | 0.01 | 0.69 | 0.69 | 83 | 1010.1 |
| 20260509042519 | 70 | 0 | 0.0 | 5.0 | 0.01 | 0.69 | 0.69 | 83 | 1009.9 |
| 20260509042019 | 70 | 157 | 1.0 | 5.0 | 0.01 | 0.69 | 0.69 | 82 | 1009.7 |
| 20260509041538 | 70 | 176 | 2.0 | 7.0 | 0.01 | 0.69 | 0.69 | 82 | 1009.7 |
| 20260509041019 | 70 | 182 | 2.0 | 7.0 | 0.01 | 0.69 | 0.69 | 82 | 1010.0 |
| 20260509040519 | 70 | 175 | 2.0 | 10.0 | 0.01 | 0.69 | 0.69 | 82 | 1010.1 |
| 20260509040039 | 70 | 155 | 2.0 | 10.0 | 0.01 | 0.69 | 0.69 | 82 | 1009.7 |
| 20260509035521 | 71 | 176 | 2.0 | 4.0 | 0.01 | 0.69 | 0.69 | 82 | 1009.8 |
| 20260509035019 | 72 | 193 | 1.0 | 4.0 | 0.01 | 0.69 | 0.69 | 80 | 1010.2 |
| 20260509034538 | 72 | 144 | 1.0 | 3.0 | 0.00 | 0.68 | 0.68 | 77 | 1010.2 |
| 20260509034022 | 72 | 154 | 0.0 | 2.0 | 0.00 | 0.68 | 0.68 | 76 | 1010.9 |
| 20260509033520 | 72 | 0 | 0.0 | 2.0 | 0.00 | 0.68 | 0.68 | 76 | 1011.2 |
| 20260509033038 | 72 | 43 | 0.0 | 2.0 | 0.00 | 0.68 | 0.68 | 77 | 1011.1 |
| 20260509032518 | 72 | 43 | 0.0 | 2.0 | 0.00 | 0.68 | 0.68 | 76 | 1011.0 |
| 20260509032023 | 72 | 0 | 0.0 | 4.0 | 0.00 | 0.68 | 0.68 | 77 | 1010.6 |
| 20260509031537 | 72 | 0 | 0.0 | 4.0 | 0.00 | 0.68 | 0.68 | 77 | 1010.4 |
| 20260509031020 | 72 | 150 | 0.0 | 3.0 | 0.00 | 0.68 | 0.68 | 76 | 1010.4 |
| 20260509030521 | 72 | 0 | 0.0 | 3.0 | 0.00 | 0.68 | 0.68 | 76 | 1010.3 |
| 20260509030035 | 72 | 0 | 0.0 | 2.0 | 0.00 | 0.68 | 0.68 | 76 | 1010.4 |
| 20260509025521 | 72 | 0 | 1.0 | 2.0 | 0.00 | 0.68 | 0.68 | 76 | 1010.5 |
| 20260509025017 | 72 | 0 | 0.0 | 2.0 | 0.00 | 0.68 | 0.68 | 76 | 1010.3 |
| 20260509024538 | 72 | 0 | 1.0 | 2.0 | 0.00 | 0.68 | 0.68 | 76 | 1010.0 |
| 20260509024018 | 72 | 57 | 0.0 | 2.0 | 0.00 | 0.68 | 0.68 | 76 | 1010.0 |
| 20260509023518 | 72 | 32 | 0.0 | 4.0 | 0.00 | 0.68 | 0.68 | 76 | 1009.9 |
| 20260509023039 | 72 | 0 | 1.0 | 7.0 | 0.00 | 0.68 | 0.68 | 76 | 1009.5 |
| 20260509022522 | 72 | 143 | 1.0 | 7.0 | 0.00 | 0.68 | 0.68 | 76 | 1009.2 |
| 20260509022018 | 72 | 190 | 1.0 | 6.0 | 0.00 | 0.68 | 0.68 | 76 | 1009.0 |
| 20260509021538 | 72 | 182 | 1.0 | 6.0 | 0.00 | 0.68 | 0.68 | 76 | 1009.0 |
| 20260509021021 | 72 | 125 | 1.0 | 5.0 | 0.00 | 0.68 | 0.68 | 75 | 1009.1 |
| 20260509020521 | 72 | 165 | 1.0 | 5.0 | 0.00 | 0.68 | 0.68 | 75 | 1009.1 |
| 20260509020039 | 72 | 156 | 0.0 | 5.0 | 0.00 | 0.68 | 0.68 | 74 | 1009.2 |
| 20260509015518 | 72 | 181 | 1.0 | 5.0 | 0.00 | 0.68 | 0.68 | 74 | 1009.1 |
| 20260509015020 | 73 | 0 | 1.0 | 9.0 | 0.00 | 0.68 | 0.68 | 74 | 1009.0 |
| 20260509014535 | 73 | 142 | 1.0 | 9.0 | 0.00 | 0.68 | 0.68 | 73 | 1008.9 |
| 20260509014030 | 73 | 182 | 1.0 | 5.0 | 0.00 | 0.68 | 0.68 | 73 | 1008.9 |
| 20260509013521 | 73 | 159 | 0.0 | 4.0 | 0.00 | 0.68 | 0.68 | 73 | 1008.8 |
| 20260509013034 | 73 | 178 | 1.0 | 4.0 | 0.00 | 0.68 | 0.68 | 72 | 1008.9 |
| 20260509012518 | 73 | 192 | 1.0 | 3.0 | 0.00 | 0.68 | 0.68 | 73 | 1008.9 |
| 20260509012018 | 73 | 192 | 0.0 | 3.0 | 0.00 | 0.68 | 0.68 | 72 | 1009.0 |
| 20260509011538 | 73 | 142 | 0.0 | 2.0 | 0.00 | 0.68 | 0.68 | 72 | 1009.0 |
| 20260509011017 | 73 | 178 | 0.0 | 3.0 | 0.00 | 0.68 | 0.68 | 72 | 1008.9 |
| 20260509010520 | 73 | 159 | 0.0 | 3.0 | 0.00 | 0.68 | 0.68 | 71 | 1008.9 |
| 20260509010038 | 73 | 167 | 0.0 | 4.0 | 0.00 | 0.68 | 0.68 | 71 | 1008.9 |
| 20260509005520 | 73 | 0 | 0.0 | 4.0 | 0.00 | 0.68 | 0.68 | 71 | 1008.9 |
| 20260509005017 | 74 | 163 | 1.0 | 4.0 | 0.00 | 0.68 | 0.68 | 70 | 1008.7 |
| 20260509004540 | 74 | 150 | 1.0 | 4.0 | 0.00 | 0.68 | 0.68 | 70 | 1008.6 |
| 20260509004018 | 74 | 175 | 1.0 | 6.0 | 0.00 | 0.68 | 0.68 | 70 | 1008.4 |
| 20260509003524 | 74 | 186 | 1.0 | 8.0 | 0.00 | 0.68 | 0.68 | 69 | 1008.3 |
| 20260509003039 | 74 | 128 | 2.0 | 8.0 | 0.00 | 0.68 | 0.68 | 69 | 1008.3 |
| 20260509002519 | 75 | 158 | 1.0 | 5.0 | 0.00 | 0.68 | 0.68 | 69 | 1008.3 |
| 20260509002022 | 75 | 183 | 1.0 | 7.0 | 0.00 | 0.68 | 0.68 | 68 | 1008.3 |
| 20260509001538 | 75 | 213 | 1.0 | 11.0 | 0.00 | 0.68 | 0.68 | 68 | 1008.3 |
| 20260509001022 | 75 | 146 | 2.0 | 11.0 | 0.00 | 0.68 | 0.68 | 68 | 1008.3 |
| 20260509000522 | 76 | 152 | 1.0 | 7.0 | 0.00 | 0.68 | 0.68 | 67 | 1008.3 |
| 20260509000038 | 76 | 167 | 1.0 | 6.0 | 0.00 | 0.68 | 0.68 | 67 | 1008.4 |
| 20260508235526 | 76 | 94 | 1.0 | 6.0 | 0.00 | 0.68 | 0.68 | 66 | 1008.3 |
| 20260508235023 | 76 | 157 | 1.0 | 5.0 | 0.00 | 0.68 | 0.68 | 66 | 1008.6 |
| 20260508234539 | 76 | 0 | 1.0 | 6.0 | 0.00 | 0.68 | 0.68 | 65 | 1008.6 |
| 20260508234022 | 76 | 167 | 2.0 | 7.0 | 0.00 | 0.68 | 0.68 | 65 | 1008.7 |
| 20260508233522 | 77 | 171 | 1.0 | 9.0 | 0.00 | 0.68 | 0.68 | 65 | 1008.7 |
| 20260508233037 | 77 | 177 | 1.0 | 9.0 | 0.00 | 0.68 | 0.68 | 65 | 1008.7 |
| 20260508232522 | 77 | 166 | 1.0 | 5.0 | 0.00 | 0.68 | 0.68 | 65 | 1008.6 |
| 20260508232022 | 77 | 198 | 1.0 | 8.0 | 0.00 | 0.68 | 0.68 | 65 | 1008.8 |
| 20260508231552 | 78 | 169 | 1.0 | 8.0 | 0.00 | 0.68 | 0.68 | 64 | 1008.7 |
| 20260508231022 | 78 | 195 | 2.0 | 5.0 | 0.00 | 0.68 | 0.68 | 64 | 1008.8 |
| 20260508230521 | 78 | 194 | 1.0 | 5.0 | 0.00 | 0.68 | 0.68 | 64 | 1008.8 |
| 20260508230051 | 78 | 171 | 0.0 | 5.0 | 0.00 | 0.68 | 0.68 | 65 | 1008.8 |
| 20260508225525 | 78 | 0 | 0.0 | 5.0 | 0.00 | 0.68 | 0.68 | 65 | 1008.9 |
| 20260508225023 | 78 | 232 | 0.0 | 6.0 | 0.00 | 0.68 | 0.68 | 64 | 1008.9 |
| 20260508224538 | 78 | 0 | 1.0 | 6.0 | 0.00 | 0.68 | 0.68 | 64 | 1008.8 |
| 20260508224022 | 78 | 0 | 1.0 | 4.0 | 0.00 | 0.68 | 0.68 | 64 | 1008.8 |
| 20260508223522 | 79 | 0 | 0.0 | 6.0 | 0.00 | 0.68 | 0.68 | 63 | 1008.9 |
| 20260508223043 | 79 | 196 | 1.0 | 6.0 | 0.00 | 0.68 | 0.68 | 63 | 1008.9 |
| 20260508222522 | 80 | 0 | 1.0 | 5.0 | 0.00 | 0.68 | 0.68 | 62 | 1008.9 |
| 20260508222022 | 80 | 0 | 0.0 | 4.0 | 0.00 | 0.68 | 0.68 | 62 | 1008.8 |
| 20260508221538 | 80 | 167 | 0.0 | 4.0 | 0.00 | 0.68 | 0.68 | 62 | 1008.7 |
| 20260508221022 | 79 | 186 | 0.0 | 8.0 | 0.00 | 0.68 | 0.68 | 62 | 1008.7 |
| 20260508220521 | 80 | 201 | 2.0 | 8.0 | 0.00 | 0.68 | 0.68 | 60 | 1008.6 |
| 20260508220043 | 80 | 0 | 1.0 | 5.0 | 0.00 | 0.68 | 0.68 | 62 | 1008.6 |
| 20260508215526 | 79 | 196 | 1.0 | 7.0 | 0.00 | 0.68 | 0.68 | 62 | 1008.7 |
| 20260508215022 | 79 | 215 | 2.0 | 7.0 | 0.00 | 0.68 | 0.68 | 61 | 1008.8 |
| 20260508214554 | 80 | 192 | 1.0 | 7.0 | 0.00 | 0.68 | 0.68 | 60 | 1008.7 |
| 20260508214021 | 80 | 198 | 2.0 | 8.0 | 0.00 | 0.68 | 0.68 | 61 | 1008.6 |